DL6DJ-15 Weather Reports


time (UTC)temp
C
wind
direction
speed
KPH
gust
KPH
rain 1hr
cm
rain 24hr
cm
rain mn
cm
humidity
%
barometer
mb
20260507071935 11 0.0 0.0 0.00 0.00 0.00 71 1013.2
20260507071435 11 0.0 0.0 0.00 0.00 0.00 71 1013.2
20260507070935 11 0.0 0.0 0.00 0.00 0.00 72 1013.2
20260507070434 11 0.0 0.0 0.00 0.00 0.00 71 1013.1
20260507065935 11 0.0 0.0 0.00 0.00 0.00 70 1013.1
20260507065434 11 0.0 0.0 0.00 0.00 0.00 70 1013.0
20260507064934 11 0.0 0.0 0.00 0.00 0.00 72 1013.1
20260507064433 11 0.0 0.0 0.00 0.00 0.00 71 1013.0
20260507063933 11 0.0 0.0 0.00 0.00 0.00 72 1013.0
20260507063432 11 0.0 0.0 0.00 0.00 0.00 73 1013.0
20260507062932 11 0.0 0.0 0.00 0.00 0.00 75 1013.0
20260507062431 10 0.0 0.0 0.00 0.00 0.00 74 1013.0
20260507061931 10 0.0 0.0 0.00 0.00 0.00 74 1012.9
20260507061430 10 0.0 0.0 0.00 0.00 0.00 75 1012.9
20260507060930 10 0.0 0.0 0.00 0.00 0.00 75 1012.9
20260507060430 11 0.0 0.0 0.00 0.00 0.00 73 1012.7
20260507055929 11 0.0 0.0 0.00 0.00 0.00 72 1012.7
20260507055429 11 0.0 0.0 0.00 0.00 0.00 72 1012.6
20260507054928 11 0.0 0.0 0.00 0.00 0.00 73 1012.5
20260507054428 11 0.0 0.0 0.00 0.00 0.00 72 1012.5
20260507053928 11 0.0 0.0 0.00 0.00 0.00 68 1012.5
20260507053428 13 0.0 0.0 0.00 0.00 0.00 64 1012.5
20260507052927 12 0.0 0.0 0.00 0.00 0.00 67 1012.4
20260507052427 11 0.0 0.0 0.00 0.00 0.00 70 1012.4
20260507051926 11 0.0 0.0 0.00 0.00 0.00 72 1012.3
20260507051426 11 0.0 0.0 0.00 0.00 0.00 71 1012.3
20260507050925 11 0.0 0.0 0.00 0.00 0.00 74 1012.2
20260507050425 10 0.0 0.0 0.00 0.00 0.00 75 1012.2
20260507045924 10 0.0 0.0 0.00 0.00 0.00 76 1012.1
20260507045424 10 0.0 0.0 0.00 0.00 0.00 78 1012.0
20260507044924 8 0.0 0.0 0.00 0.00 0.00 81 1011.9
20260507044423 8 0.0 0.0 0.00 0.00 0.00 82 1012.0
20260507043923 8 0.0 0.0 0.00 0.00 0.00 83 1011.9
20260507043422 7 0.0 0.0 0.00 0.00 0.00 84 1012.0
20260507042922 7 0.0 0.0 0.00 0.00 0.00 84 1011.9
20260507042421 7 0.0 0.0 0.00 0.00 0.00 84 1011.8
20260507041922 7 0.0 0.0 0.00 0.00 0.00 84 1011.7
20260507041421 7 0.0 0.0 0.00 0.00 0.00 83 1011.6
20260507040920 7 0.0 0.0 0.00 0.00 0.00 82 1011.7
20260507040420 7 0.0 0.0 0.00 0.00 0.00 80 1011.6
20260507035920 8 0.0 0.0 0.00 0.00 0.00 80 1011.6
20260507035419 8 0.0 0.0 0.00 0.00 0.00 80 1011.6
20260507034919 8 0.0 0.0 0.00 0.00 0.00 81 1011.5
20260507034418 8 0.0 0.0 0.00 0.00 0.00 81 1011.5
20260507033918 8 0.0 0.0 0.00 0.00 0.00 80 1011.4
20260507033418 8 0.0 0.0 0.00 0.00 0.00 81 1011.4
20260507032918 8 0.0 0.0 0.00 0.00 0.00 81 1011.3
20260507032417 8 0.0 0.0 0.00 0.00 0.00 82 1011.4
20260507031917 8 0.0 0.0 0.00 0.00 0.00 82 1011.3
20260507031416 8 0.0 0.0 0.00 0.00 0.00 83 1011.4
20260507030916 8 0.0 0.0 0.00 0.00 0.00 83 1011.3
20260507030415 8 0.0 0.0 0.00 0.00 0.00 83 1011.2
20260507025915 8 0.0 0.0 0.00 0.00 0.00 83 1011.1
20260507025415 8 0.0 0.0 0.00 0.00 0.00 83 1011.2
20260507024914 8 0.0 0.0 0.00 0.00 0.00 83 1011.1
20260507024414 8 0.0 0.0 0.00 0.00 0.00 83 1011.1
20260507023914 8 0.0 0.0 0.00 0.00 0.00 83 1011.2
20260507023413 9 0.0 0.0 0.00 0.00 0.00 82 1011.1
20260507022913 9 0.0 0.0 0.00 0.00 0.00 82 1011.1
20260507022412 9 0.0 0.0 0.00 0.00 0.00 82 1011.0
20260507021912 9 0.0 0.0 0.00 0.00 0.00 81 1011.0
20260507021411 10 0.0 0.0 0.00 0.00 0.00 81 1010.9
20260507020911 10 0.0 0.0 0.00 0.00 0.00 81 1010.9
20260507020411 10 0.0 0.0 0.00 0.00 0.00 82 1011.0
20260507015910 10 0.0 0.0 0.00 0.00 0.00 81 1010.9
20260507015410 10 0.0 0.0 0.00 0.00 0.00 82 1010.9
20260507014910 10 0.0 0.0 0.00 0.00 0.00 83 1010.8
20260507014409 9 0.0 0.0 0.00 0.00 0.00 83 1010.7
20260507013909 9 0.0 0.0 0.00 0.00 0.00 83 1010.8
20260507013408 10 0.0 0.0 0.00 0.00 0.00 83 1010.6
20260507012908 10 0.0 0.0 0.00 0.00 0.00 82 1010.7
20260507012408 10 0.0 0.0 0.00 0.00 0.00 82 1010.6
20260507011907 10 0.0 0.0 0.00 0.00 0.00 82 1010.5
20260507011407 10 0.0 0.0 0.00 0.00 0.00 82 1010.5
20260507010906 10 0.0 0.0 0.00 0.00 0.00 83 1010.5
20260507010406 10 0.0 0.0 0.00 0.00 0.00 83 1010.6
20260507005905 10 0.0 0.0 0.00 0.00 0.00 83 1010.5
20260507005405 10 0.0 0.0 0.00 0.00 0.00 83 1010.6
20260507004904 10 0.0 0.0 0.00 0.00 0.00 83 1010.6
20260507004404 10 0.0 0.0 0.00 0.00 0.00 83 1010.6
20260507003904 10 0.0 0.0 0.00 0.00 0.00 83 1010.6
20260507003403 10 0.0 0.0 0.00 0.00 0.00 83 1010.5
20260507002903 10 0.0 0.0 0.00 0.00 0.00 83 1010.5
20260507002403 10 0.0 0.0 0.00 0.00 0.00 82 1010.5
20260507001902 10 0.0 0.0 0.00 0.00 0.00 82 1010.5
20260507001402 10 0.0 0.0 0.00 0.00 0.00 82 1010.4
20260507000901 10 0.0 0.0 0.00 0.00 0.00 82 1010.5
20260507000401 10 0.0 0.0 0.00 0.00 0.00 82 1010.5
20260506235901 10 0.0 0.0 0.00 0.00 0.00 81 1010.5
20260506235400 11 0.0 0.0 0.00 0.00 0.00 81 1010.5
20260506234900 10 0.0 0.0 0.00 0.00 0.00 82 1010.5
20260506234359 10 0.0 0.0 0.00 0.00 0.00 81 1010.5
20260506233859 10 0.0 0.0 0.00 0.00 0.00 82 1010.6
20260506233359 11 0.0 0.0 0.00 0.00 0.00 82 1010.6
20260506232859 11 0.0 0.0 0.00 0.00 0.00 82 1010.7
20260506232358 11 0.0 0.0 0.00 0.00 0.00 82 1010.6
20260506231858 11 0.0 0.0 0.00 0.00 0.00 81 1010.5
20260506231358 11 0.0 0.0 0.00 0.00 0.00 82 1010.5
20260506230857 11 0.0 0.0 0.00 0.00 0.00 83 1010.4
20260506230357 11 0.0 0.0 0.00 0.00 0.00 83 1010.4
20260506225856 11 0.0 0.0 0.00 0.00 0.00 84 1010.5
20260506225356 11 0.0 0.0 0.00 0.00 0.00 83 1010.5
20260506224856 11 0.0 0.0 0.00 0.00 0.00 83 1010.4
20260506224355 11 0.0 0.0 0.00 0.00 0.00 83 1010.4
20260506223855 11 0.0 0.0 0.00 0.00 0.00 83 1010.3
20260506223354 11 0.0 0.0 0.00 0.00 0.00 83 1010.3
20260506222854 11 0.0 0.0 0.00 0.00 0.00 83 1010.3
20260506222354 11 0.0 0.0 0.00 0.00 0.00 83 1010.2
20260506221853 11 0.0 0.0 0.00 0.00 0.00 82 1010.2
20260506221353 11 0.0 0.0 0.00 0.00 0.00 82 1010.1
20260506220852 11 0.0 0.0 0.00 0.00 0.00 82 1010.1
20260506220352 11 0.0 0.0 0.00 0.00 0.00 82 1010.1
20260506215851 11 0.0 0.0 0.00 0.00 0.00 81 1010.0
20260506215351 11 0.0 0.0 0.00 0.00 0.00 81 1010.0
20260506214851 11 0.0 0.0 0.00 0.00 0.00 80 1010.0
20260506214350 11 0.0 0.0 0.00 0.00 0.00 79 1009.9
20260506213850 11 0.0 0.0 0.00 0.00 0.00 79 1009.8
20260506213350 11 0.0 0.0 0.00 0.00 0.00 78 1009.8
20260506212849 11 0.0 0.0 0.00 0.00 0.00 78 1009.8
20260506212349 11 0.0 0.0 0.00 0.00 0.00 77 1009.8
20260506211848 11 0.0 0.0 0.00 0.00 0.00 78 1009.8
20260506211348 11 0.0 0.0 0.00 0.00 0.00 78 1009.8
20260506210847 11 0.0 0.0 0.00 0.00 0.00 77 1009.5
20260506210347 11 0.0 0.0 0.00 0.00 0.00 77 1009.5
20260506205847 11 0.0 0.0 0.00 0.00 0.00 77 1009.4
20260506205346 11 0.0 0.0 0.00 0.00 0.00 76 1009.3
20260506204846 11 0.0 0.0 0.00 0.00 0.00 77 1009.4
20260506204346 11 0.0 0.0 0.00 0.00 0.00 76 1009.5
20260506203845 11 0.0 0.0 0.00 0.00 0.00 76 1009.4
20260506203344 11 0.0 0.0 0.00 0.00 0.00 77 1009.5
20260506202844 11 0.0 0.0 0.00 0.00 0.00 78 1009.4
20260506202344 11 0.0 0.0 0.00 0.00 0.00 79 1009.4
20260506201844 10 0.0 0.0 0.00 0.00 0.00 79 1009.3
20260506201343 10 0.0 0.0 0.00 0.00 0.00 79 1009.3
20260506200843 10 0.0 0.0 0.00 0.00 0.00 79 1009.3
20260506200342 11 0.0 0.0 0.00 0.00 0.00 79 1009.2
20260506195842 11 0.0 0.0 0.00 0.00 0.00 79 1009.1
20260506195342 11 0.0 0.0 0.00 0.00 0.00 78 1009.0
20260506194842 11 0.0 0.0 0.00 0.00 0.00 77 1008.9
20260506194341 11 0.0 0.0 0.00 0.00 0.00 76 1008.8
20260506193841 11 0.0 0.0 0.00 0.00 0.00 76 1008.8
20260506193340 11 0.0 0.0 0.00 0.00 0.00 75 1008.5
20260506192840 12 0.0 0.0 0.00 0.00 0.00 73 1008.4
20260506192339 12 0.0 0.0 0.00 0.00 0.00 72 1008.2
20260506191839 12 0.0 0.0 0.00 0.00 0.00 73 1008.0
20260506191339 12 0.0 0.0 0.00 0.00 0.00 74 1008.0
20260506190839 12 0.0 0.0 0.00 0.00 0.00 74 1008.0
20260506190338 13 0.0 0.0 0.00 0.00 0.00 75 1008.0
20260506185837 13 0.0 0.0 0.00 0.00 0.00 74 1008.1
20260506185337 13 0.0 0.0 0.00 0.00 0.00 73 1007.6
20260506184837 13 0.0 0.0 0.00 0.00 0.00 74 1007.4
20260506184336 13 0.0 0.0 0.00 0.00 0.00 74 1007.5
20260506183835 13 0.0 0.0 0.00 0.00 0.00 71 1007.4
20260506183335 14 0.0 0.0 0.00 0.00 0.00 65 1007.6
20260506182835 14 0.0 0.0 0.00 0.00 0.00 63 1007.4
20260506182334 15 0.0 0.0 0.00 0.00 0.00 60 1007.4
20260506181834 16 0.0 0.0 0.00 0.00 0.00 62 1007.4
20260506181333 16 0.0 0.0 0.00 0.00 0.00 61 1007.1
20260506180833 16 0.0 0.0 0.00 0.00 0.00 60 1007.0
20260506180333 16 0.0 0.0 0.00 0.00 0.00 59 1006.8
20260506175832 17 0.0 0.0 0.00 0.00 0.00 57 1006.5
20260506175332 17 0.0 0.0 0.00 0.00 0.00 51 1006.5
20260506174832 17 0.0 0.0 0.00 0.00 0.00 51 1006.1
20260506174331 17 0.0 0.0 0.00 0.00 0.00 51 1006.1
20260506173832 18 0.0 0.0 0.00 0.00 0.00 50 1006.0
20260506173331 18 0.0 0.0 0.00 0.00 0.00 49 1005.8
20260506172830 18 0.0 0.0 0.00 0.00 0.00 51 1005.8
20260506172329 18 0.0 0.0 0.00 0.00 0.00 49 1005.7
20260506171829 18 0.0 0.0 0.00 0.00 0.00 49 1005.6
20260506171329 18 0.0 0.0 0.00 0.00 0.00 48 1005.4
20260506170828 18 0.0 0.0 0.00 0.00 0.00 49 1005.5
20260506170328 18 0.0 0.0 0.00 0.00 0.00 47 1005.2
20260506165828 18 0.0 0.0 0.00 0.00 0.00 47 1005.2
20260506165327 18 0.0 0.0 0.00 0.00 0.00 47 1005.6
20260506164827 18 0.0 0.0 0.00 0.00 0.00 47 1005.6
20260506164327 18 0.0 0.0 0.00 0.00 0.00 48 1005.7
20260506163826 18 0.0 0.0 0.00 0.00 0.00 46 1005.7
20260506163326 18 0.0 0.0 0.00 0.00 0.00 46 1005.6
20260506162825 18 0.0 0.0 0.00 0.00 0.00 46 1005.3
20260506162325 18 0.0 0.0 0.00 0.00 0.00 46 1005.5
20260506161824 18 0.0 0.0 0.00 0.00 0.00 46 1005.6
20260506161324 19 0.0 0.0 0.00 0.00 0.00 45 1005.8
20260506160824 19 0.0 0.0 0.00 0.00 0.00 44 1005.8
20260506160323 20 0.0 0.0 0.00 0.00 0.00 43 1005.8
20260506155823 20 0.0 0.0 0.00 0.00 0.00 43 1005.7
20260506155322 20 0.0 0.0 0.00 0.00 0.00 41 1005.6
20260506154822 20 0.0 0.0 0.00 0.00 0.00 41 1005.7
20260506154321 20 0.0 0.0 0.00 0.00 0.00 42 1005.7
20260506153820 20 0.0 0.0 0.00 0.00 0.00 39 1005.6
20260506153320 21 0.0 0.0 0.00 0.00 0.00 39 1005.5
20260506152820 20 0.0 0.0 0.00 0.00 0.00 39 1005.6
20260506152320 20 0.0 0.0 0.00 0.00 0.00 40 1005.6
20260506151819 20 0.0 0.0 0.00 0.00 0.00 39 1005.7
20260506151319 21 0.0 0.0 0.00 0.00 0.00 38 1005.6
20260506150819 21 0.0 0.0 0.00 0.00 0.00 36 1005.6
20260506150318 21 0.0 0.0 0.00 0.00 0.00 38 1005.6
20260506145818 21 0.0 0.0 0.00 0.00 0.00 38 1005.6
20260506145318 21 0.0 0.0 0.00 0.00 0.00 38 1005.6
20260506144817 21 0.0 0.0 0.00 0.00 0.00 37 1005.6
20260506144317 21 0.0 0.0 0.00 0.00 0.00 36 1005.6
20260506143816 22 0.0 0.0 0.00 0.00 0.00 36 1005.7
20260506143316 22 0.0 0.0 0.00 0.00 0.00 35 1005.5
20260506142816 22 0.0 0.0 0.00 0.00 0.00 36 1005.7
20260506142315 22 0.0 0.0 0.00 0.00 0.00 35 1005.7
20260506141815 22 0.0 0.0 0.00 0.00 0.00 36 1005.8
20260506141315 22 0.0 0.0 0.00 0.00 0.00 36 1005.6
20260506140814 22 0.0 0.0 0.00 0.00 0.00 35 1005.7
20260506140314 22 0.0 0.0 0.00 0.00 0.00 37 1005.7
20260506135813 22 0.0 0.0 0.00 0.00 0.00 38 1005.8
20260506135313 22 0.0 0.0 0.00 0.00 0.00 35 1005.8
20260506134813 22 0.0 0.0 0.00 0.00 0.00 35 1005.8
20260506134312 23 0.0 0.0 0.00 0.00 0.00 35 1005.8
20260506133812 23 0.0 0.0 0.00 0.00 0.00 37 1005.9
20260506133311 23 0.0 0.0 0.00 0.00 0.00 35 1005.9
20260506132811 22 0.0 0.0 0.00 0.00 0.00 36 1006.1
20260506132311 22 0.0 0.0 0.00 0.00 0.00 37 1006.2
20260506131810 22 0.0 0.0 0.00 0.00 0.00 36 1006.1
20260506131310 23 0.0 0.0 0.00 0.00 0.00 35 1006.2
20260506130810 22 0.0 0.0 0.00 0.00 0.00 37 1006.2
20260506130309 22 0.0 0.0 0.00 0.00 0.00 35 1006.4
20260506125808 23 0.0 0.0 0.00 0.00 0.00 34 1006.5
20260506125308 23 0.0 0.0 0.00 0.00 0.00 34 1006.4
20260506124808 23 0.0 0.0 0.00 0.00 0.00 35 1006.4
20260506124307 23 0.0 0.0 0.00 0.00 0.00 35 1006.4
20260506123807 23 0.0 0.0 0.00 0.00 0.00 36 1006.5
20260506123306 23 0.0 0.0 0.00 0.00 0.00 34 1006.5
20260506122806 22 0.0 0.0 0.00 0.00 0.00 36 1006.5
20260506122306 23 0.0 0.0 0.00 0.00 0.00 33 1006.5
20260506121805 23 0.0 0.0 0.00 0.00 0.00 35 1006.6
20260506121305 23 0.0 0.0 0.00 0.00 0.00 34 1006.7
20260506120804 23 0.0 0.0 0.00 0.00 0.00 37 1006.7
20260506120304 23 0.0 0.0 0.00 0.00 0.00 36 1006.8
20260506115804 23 0.0 0.0 0.00 0.00 0.00 38 1006.8
20260506115306 22 0.0 0.0 0.00 0.00 0.00 37 1006.9
20260506114803 23 0.0 0.0 0.00 0.00 0.00 38 1007.1
20260506114303 23 0.0 0.0 0.00 0.00 0.00 38 1007.1
20260506113802 23 0.0 0.0 0.00 0.00 0.00 38 1007.2
20260506113302 22 0.0 0.0 0.00 0.00 0.00 38 1007.3
20260506112802 22 0.0 0.0 0.00 0.00 0.00 41 1007.3
20260506112301 22 0.0 0.0 0.00 0.00 0.00 39 1007.5
20260506111801 23 0.0 0.0 0.00 0.00 0.00 39 1007.4
20260506111301 22 0.0 0.0 0.00 0.00 0.00 40 1007.6
20260506110800 21 0.0 0.0 0.00 0.00 0.00 43 1007.4
20260506110300 21 0.0 0.0 0.00 0.00 0.00 43 1007.4
20260506105759 21 0.0 0.0 0.00 0.00 0.00 45 1007.6
20260506105259 20 0.0 0.0 0.00 0.00 0.00 43 1007.7
20260506104759 21 0.0 0.0 0.00 0.00 0.00 42 1007.8
20260506104258 21 0.0 0.0 0.00 0.00 0.00 42 1007.8
20260506103758 21 0.0 0.0 0.00 0.00 0.00 41 1007.9
20260506103258 21 0.0 0.0 0.00 0.00 0.00 41 1007.9
20260506102757 21 0.0 0.0 0.00 0.00 0.00 42 1007.9
20260506102257 22 0.0 0.0 0.00 0.00 0.00 40 1007.9
20260506101757 22 0.0 0.0 0.00 0.00 0.00 42 1007.9
20260506101256 21 0.0 0.0 0.00 0.00 0.00 42 1008.0
20260506100756 21 0.0 0.0 0.00 0.00 0.00 42 1008.0
20260506100256 22 0.0 0.0 0.00 0.00 0.00 43 1008.0
20260506095755 21 0.0 0.0 0.00 0.00 0.00 44 1007.9
20260506095255 21 0.0 0.0 0.00 0.00 0.00 44 1007.9
20260506094755 21 0.0 0.0 0.00 0.00 0.00 43 1007.9
20260506094254 21 0.0 0.0 0.00 0.00 0.00 42 1008.0
20260506093755 21 0.0 0.0 0.00 0.00 0.00 45 1007.9
20260506093254 21 0.0 0.0 0.00 0.00 0.00 45 1008.0
20260506092753 21 0.0 0.0 0.00 0.00 0.00 45 1008.1
20260506092253 21 0.0 0.0 0.00 0.00 0.00 44 1008.0
20260506091753 21 0.0 0.0 0.00 0.00 0.00 40 1008.1
20260506091252 22 0.0 0.0 0.00 0.00 0.00 39 1008.0
20260506090752 23 0.0 0.0 0.00 0.00 0.00 37 1008.1
20260506090251 23 0.0 0.0 0.00 0.00 0.00 38 1008.1
20260506085751 25 0.0 0.0 0.00 0.00 0.00 33 1008.1
20260506085251 26 0.0 0.0 0.00 0.00 0.00 34 1008.1
20260506084750 24 0.0 0.0 0.00 0.00 0.00 36 1008.1
20260506084250 24 0.0 0.0 0.00 0.00 0.00 35 1008.1
20260506083750 25 0.0 0.0 0.00 0.00 0.00 36 1008.0
20260506083249 23 0.0 0.0 0.00 0.00 0.00 37 1008.0
20260506082749 24 0.0 0.0 0.00 0.00 0.00 36 1008.1
20260506082249 23 0.0 0.0 0.00 0.00 0.00 39 1008.2
20260506081748 22 0.0 0.0 0.00 0.00 0.00 42 1008.2
20260506081248 22 0.0 0.0 0.00 0.00 0.00 41 1008.2
20260506080747 22 0.0 0.0 0.00 0.00 0.00 41 1008.2
20260506080247 23 0.0 0.0 0.00 0.00 0.00 41 1008.2
20260506073245 23 0.0 0.0 0.00 0.00 0.00 38 1008.4
20260506072744 26 0.0 0.0 0.00 0.00 0.00 34 1008.3
20260506072244 27 0.0 0.0 0.00 0.00 0.00 32 1008.4